Location: Cerda�ola
(41.4919°N, 2.1403°E)
Time: 13:17:47
(UTC+00:00)

HJ-1C - Visible Passes

Search period start: 06 August 2020 00:00
Search period end: 16 August 2020 00:00
Orbit: 432 x 445 km, 97.2° (Epoch: 06 August)

Date Brightness Start Highest point End Pass type
(mag) Time Alt. Az. Time Alt. Az. Time Alt. Az.
06 Aug 6.3 19:46:31 10° SW 19:48:54 18° W 19:51:17 10° NW visible
08 Aug 6.6 20:03:42 10° WSW 20:04:49 11° W 20:05:57 10° WNW visible
09 Aug 5.1 19:23:08 10° SSW 19:26:14 35° W 19:29:21 10° NNW visible
11 Aug 6.0 19:39:25 10° SSW 19:42:05 22° W 19:44:45 10° NW visible
13 Aug 6.4 19:56:09 10° SW 19:57:57 14° W 19:59:45 10° WNW visible
